Regional Weather Roundup
Issued by NWS

Home | Current Version | Previous Version | Graphics & Text | Print | Product List | Glossary On
Versions: 1 2 3 4 5 6 7 8 9 10 11 12 13 14 15 16 17 18 19 20 21 22 23 24 25 26 27 28 29 30 31 32 33 34 35 36 37 38 39 40 41 42 43 44 45 46 47 48 49 50
000
ASUS43 KOAX 182110
RWRNE

WEATHER ROUNDUP FOR NEBRASKA
NATIONAL WEATHER SERVICE OMAHA NE
300 PM CST SUN FEB 18 2018

NOTES: SATELLITE DATA IS BEING USED TO AUGMENT CLOUD COVER ABOVE
       12000 FEET.
       "FAIR" INDICATES FEW OR NO CLOUDS BELOW 12,000 FEET WITH NO
       SIGNIFICANT WEATHER AND/OR OBSTRUCTIONS TO VISIBILITY.


NEZ001>004-019>022-054>056-182200-
NEBRASKA PANHANDLE

CITY           SKY/WX    TMP DP  RH WIND       PRES   REMARKS
SCOTTSBLUFF    MOSUNNY   53  28  38 NE22      29.43F
ALLIANCE       MOSUNNY   42  30  62 NE28G33   29.49R
CHADRON        CLOUDY    24  19  81 NE25G31   29.64R WCI   8
GORDON         CLOUDY    25  21  85 N21G26    29.59R WCI  11
KIMBALL        SUNNY     65  14  13 W15       29.42F
SIDNEY         MOSUNNY   67  13  12 S10       29.41F
$$

NEZ057>060-069>072-079>082-182200-
SOUTHWEST NEBRASKA

CITY           SKY/WX    TMP DP  RH WIND       PRES   REMARKS
NORTH PLATTE   MOSUNNY   54  30  40 S5        29.47R
IMPERIAL       SUNNY     61  30  31 E10       29.43S
LEXINGTON      SUNNY     56  32  39 S12       29.46F
MCCOOK         SUNNY     61  32  33 S10       29.44F
OGALLALA       SUNNY     58  30  35 E14       29.44S
$$

NEZ005>010-023>029-035>040-094-182200-
NORTH CENTRAL NEBRASKA

CITY           SKY/WX    TMP DP  RH WIND       PRES   REMARKS
VALENTINE      PTSUNNY   31  22  69 N21G33    29.61R WCI  18
AINSWORTH      PTSUNNY   35  29  77 N22G29    29.58R WCI  24
BROKEN BOW     MOSUNNY   53  32  44 VRB3      29.48S
O`NEILL        CLOUDY    41  31  66 NW20G25   29.55R
ORD            MOSUNNY   52  32  46 S9        29.49F
THEDFORD       MOSUNNY   44  32  63 N16G26    29.53S
$$

NEZ041-046>049-061>064-073>077-083>087-182200-
SOUTH CENTRAL NEBRASKA

CITY           SKY/WX    TMP DP  RH WIND       PRES   REMARKS
GRAND ISLAND   CLOUDY    58  33  39 S22G32    29.49F
AURORA         CLOUDY    58  33  39 S18G26    29.51S
HASTINGS       CLOUDY    58  31  35 S16G31    29.50F
HEBRON         CLOUDY    61  38  43 S25G36    29.54F
HOLDREGE       CLOUDY    59  32  36 S21       29.46F
KEARNEY        CLOUDY    57  32  38 S23       29.47F
YORK           CLOUDY    57  36  44 SW23G33   29.52S
$$

NEZ011>018-030>034-042>045-182200-
NORTHEAST NEBRASKA

CITY           SKY/WX    TMP DP  RH WIND       PRES   REMARKS
NORFOLK        CLOUDY    49  33  54 SW12      29.53F
ALBION         SUNNY     52  33  48 SW12      29.52F
BLAIR          CLOUDY    55  32  42 S22G36    29.56S
COLUMBUS       CLOUDY    52  35  52 SW8       29.54S
FREMONT        CLOUDY    54  34  46 S10G18    29.57F
TEKAMAH        CLOUDY    52  35  52 S28G38    29.56F
WAYNE          MOSUNNY   48  33  56 SW9       29.55S
$$

NEZ050>053-065>068-078-088>093-182200-
SOUTHEAST NEBRASKA

CITY           SKY/WX    TMP DP  RH WIND       PRES   REMARKS
LINCOLN        CLOUDY    57  36  45 S28G48    29.55F
OMAHA EPPLEY   CLOUDY    55  30  38 S22G40    29.58F
BEATRICE       MOSUNNY   58  38  46 S25G36    29.58F
FALLS CITY     CLOUDY    56  28  34 S31G44    29.65F
NEBRASKA CITY  PTSUNNY   56  32  40 S24G43    29.61F
PLATTSMOUTH    MOSUNNY   56  32  40 S30G39    29.59F
$$

NEZ044-045-051>053-067-182200-
OMAHA AREA

CITY           SKY/WX    TMP DP  RH WIND       PRES   REMARKS
OMAHA EPPLEY   CLOUDY    55  30  38 S22G40    29.58F
BLAIR          CLOUDY    55  32  42 S22G36    29.56S
FREMONT        CLOUDY    54  34  46 S10G18    29.57F
MILLARD        CLOUDY    57  33  39 S16G25    29.59S
OFFUTT AFB     CLOUDY    56  31  39 S17G28    29.58F
PLATTSMOUTH    MOSUNNY   56  32  40 S30G39    29.59F
WAHOO          FAIR      55  33  43 S18G26    29.57S
$$



USA.gov is the U.S. government's official web portal to all federal, state and local government web resources and services.